Regional Weather Roundup
Issued by NWS Upton, NY

Current Version | Previous Version | Graphics & Text | Print | Product List | Glossary Off
Versions: 1 2 3 4 5 6 7 8 9 10 11 12 13 14 15 16 17 18 19 20 21 22 23 24 25 26 27 28 29 30 31 32 33 34 35 36 37 38 39 40 41 42 43 44 45 46 47 48 49

000
ASUS41 KOKX 300507
RWROKX

REGIONAL WEATHER ROUNDUP
NATIONAL WEATHER SERVICE NEW YORK NY
100 AM EDT MON MAR 30 2015

NOTE: "FAIR" INDICATES FEW OR NO CLOUDS BELOW 12,000 FEET WITH NO
SIGNIFICANT WEATHER AND/OR OBSTRUCTIONS TO VISIBILITY.

NYZ071-072-176-178-NJZ106-104-300600-
NEW YORK CITY METRO AREA


CITY           SKY/WX    TMP DP  RH WIND       PRES   REMARKS
CENTRAL PARK   MOCLDY    40  11  30 VRB6G20   30.13F
LAGUARDIA APRT MOCLDY    39  13  34 SW13      30.11F WCI  31
KENNEDY INTL   MOCLDY    37  19  48 SW13      30.13F WCI  29
NEWARK/LIBERTY MOCLDY    38  12  34 SW13      30.12S WCI  30
BRNX BOT. GARD   N/A    N/A N/A N/A SW16      30.13R
TETERBORO      MOCLDY    37  14  38 SW7       30.11R WCI  32
$$

NYZ177-179-078>081-300600-
LONG ISLAND NEW YORK

CITY           SKY/WX    TMP DP  RH WIND       PRES   REMARKS
FARMINGDALE    PTCLDY    36  24  62 SW10      30.12S WCI  28
ISLIP          CLEAR     36  27  69 SW10      30.09F WCI  28
SHIRLEY        CLEAR     35  27  72 SW6       30.13F WCI  30
WESTHAMPTON    CLEAR     34  26  72 SW5       30.13F WCI  30
MONTAUK POINT    N/A     36  26  67 SW8       30.12F WCI  30
$$

NYZ052-065-067-300600-
HUDSON VALLEY

CITY           SKY/WX    TMP DP  RH WIND       PRES   REMARKS
WHITE PLAINS   MOCLDY    34  18  52 CALM      30.08F
NEWBURGH       CLEAR     36  10  35 CALM      30.07S
MONTGOMERY     CLOUDY    30  14  51 S7        30.04F WCI  23
POUGHKEEPSIE   CLOUDY    30  19  63 CALM      30.06F
ALBANY         CLOUDY    34   9  35 S10       30.00F WCI  26
$$

NJZ001-105-106-008-010-013-015-019>022-104-300600-
NEW JERSEY

CITY           SKY/WX    TMP DP  RH WIND       PRES   REMARKS
NEWARK/LIBERTY MOCLDY    38  12  34 SW13      30.12S WCI  30
TETERBORO      MOCLDY    37  14  38 SW7       30.11R WCI  32
CALDWELL       MOCLDY    36  10  34 VRB3      30.11S
MORRISTOWN     CLOUDY    36  16  44 S3        30.11S
SOMERVILLE     CLOUDY    31  15  52 CALM      30.10F
SUSSEX         CLOUDY    32  12  43 CALM      30.07F
ANDOVER          N/A     34  11  38 CALM      30.06F
TRENTON        CLOUDY    34  12  40 S9        30.11F WCI  27
MILLVILLE      MOCLDY    35  21  56 S3        30.15F
ATLANTIC CITY  MOCLDY    34  24  67 MISG      30.16F
WRIGHTSTOWN    MOCLDY    31  16  54 SW6       30.11F WCI  25
TOMS RIVER     MOCLDY    30  16  55 SW5       30.14F WCI  25
BELMAR         MOCLDY    34  12  40 SW7       30.12F WCI  28
$$

PAZ047>061-062-071-300600-
EASTERN PENNSYLVANIA

CITY           SKY/WX    TMP DP  RH WIND       PRES   REMARKS
PHILADELPHIA   CLOUDY    37  15  40 S7        30.14F WCI  32
ALLENTOWN      CLOUDY    37  13  37 S9        30.07F WCI  30
SCRANTON       CLOUDY    37   7  28 SW6       29.99F WCI  32
$$

CTZ002-004>006-009-010-012-RIZ004-006-007-MAZ004-011-015-300600-
SOUTHERN NEW ENGLAND
 IN CT

CITY           SKY/WX    TMP DP  RH WIND       PRES   REMARKS
BRADLEY INTL   MOCLDY    31  14  49 S9        30.05F WCI  23
HARTFORD       CLEAR     32  20  61 S8        30.08F WCI  25
DANBURY        MOCLDY    32  16  51 S6        30.08F WCI  26
WTRBRY/OXFORD  PTCLDY    30  18  59 SW3       30.07F
BRIDGEPORT     PTCLDY    35  29  78 SW8       30.10F WCI  29
MERIDEN        CLEAR     31  22  69 S5        30.09F WCI  26
NEW HAVEN      CLEAR     33  27  78 CALM      30.10F
CHESTER        FAIR      32  27  80 SW5       30.09F WCI  27
GROTON         CLEAR     33  26  75 W5        30.11F WCI  29
WILLIMANTIC    CLEAR     25  18  74 CALM      30.09F

 IN RI

CITY           SKY/WX    TMP DP  RH WIND       PRES   REMARKS
PROVIDENCE     CLEAR     32  19  58 W8        30.11S WCI  25
BLOCK ISLAND   CLEAR     36  27  69 SW14      30.11F WCI  27
WESTERLY       CLEAR     34  25  69 SW6       30.11F WCI  29

 IN MA

CITY           SKY/WX    TMP DP  RH WIND       PRES   REMARKS
BOSTON         CLEAR     32  19  58 SW9       30.08F WCI  24
WORCESTER      CLEAR     27   8  44 SW10      30.01F WCI  17
WESTFIELD      CLEAR     27  13  55 S7        30.04F WCI  19
PROVINCETOWN   CLEAR     34  27  75 SW14      30.10S WCI  24
NANTUCKET      CLEAR     32  22  66 SW13      30.13S WCI  22
$$

ANZ330-335-338-340-345-350-353-355-300600-
COASTAL MARINE OBSERVATIONS


STATION/POSITION TIME  SKY/WX   TEMP    WIND        PRES    VSBY  WAVE
                                AIR SEA DIR/SP/G                  HT/PER
                 (UTC)          (F)     (DEG/KT/KT) (MB)    (MI)  (FT/S)
NY HARB ENTRANCE 0450            38 38  230/ 16/ 19 1019.9          3/11
4S FIRE IS       0403               37                N/A           4/11
20S FIRE ISLAND  0350               38              1021.4          4/11
23SW MTP         0450                                 N/A           4/10
HUDSON CANYON    NOT AVBL
EXECUTION ROCKS  NOT AVBL
WESTERN LI SOUND NOT AVBL
CENTRAL LI SOUND NOT AVBL
EASTERN LI SOUND NOT AVBL
ROBBINS REEF     0400            39     210/ 11/ 13 1018.7
$$


>>>>>>>>>>>>>>>>>>>>>>>>>>>> KEY <<<<<<<<<<<<<<<<<<<<<<<<<<<
>                                                          <
>     SKY/WX - SKY CONDITION/PRESENT WEATHER               <
>     TMP    - TEMPERATURE IN FAHRENHEIT                   <
>     DP     - DEWPOINT IN FAHRENHEIT                      <
>     RH     - RELATIVE HUMIDITY IN PERCENT                <
>     WIND   - DIRECTION AND SPEED IN MPH                  <
>     PRES   - MEAN SEA LEVEL PRESSURE IN INCHES OF HG     <
>     WCI    - WIND CHILL INDEX                            <
>     VSB    - VISIBILITY IN MILES                         <
>     HX     - HEAT INDEX                                  <
>     TC     - TEMPERATURE IN CELSIUS                      <
>     VRB    - VARIABLE WIND DIRECTION                     <
>                                                          <
>>>>>>>>>>>>>>>>>>>>>>>>>>>> KEY <<<<<<<<<<<<<<<<<<<<<<<<<<<





USA.gov is the U.S. government's official web portal to all federal, state and local government web resources and services.